Orangeburg, SC

8:05 PM EDT on May 25, 2017 (GMT -0400)
Orangeburg Municipal

Weather History for KOGB - March, 2013

Change the Weather History Date:

Monday, March 4, 2013

  Actual Average Record
Temperature  
Mean Temperature 43 °F 54 °F  
Max Temperature 58 °F 66 °F 86 °F (1976)
Min Temperature 28 °F 42 °F 13 °F (1980)
Degree Days  
Heating Degree Days 22 12  
Month to date heating degree days 92 48  
Since 1 July heating degree days 1725 1980  
Cooling Degree Days 0 0  
Month to date cooling degree days 0 0  
Year to date cooling degree days 20 3  
Moisture  
Dew Point 21 °F    
Average Humidity 47    
Maximum Humidity 75    
Minimum Humidity 19    
Precipitation  
Precipitation 0.00 in 0.12 in 1.29 in (1952)
Month to date precipitation T 0.51  
Year to date precipitation 8.16 8.08  
Sea Level Pressure  
Sea Level Pressure 30.12 in    
Wind  
Wind Speed 5 mph (WNW)    
Max Wind Speed 13 mph    
Max Gust Speed 18 mph    
Visibility 10 miles    
Events      
T = Trace of Precipitation, MM = Missing Value Source: NWS Daily Summary

Daily Weather History Graph

Daily Weather History Graph

Search for Another Location

Airport or City:

Trip Planner

Search our weather history database for the weather conditions in past years. The results will help you decide how hot, cold, wet, or windy it might be!

Date:

Astronomy

Mar. 04, 2013 Rise Set
Actual Time 6:47 AM EST 6:22 PM EST
Civil Twilight 6:22 AM EST 6:47 PM EST
Nautical Twilight 5:54 AM EST 7:16 PM EST
Astronomical Twilight 5:25 AM EST 7:45 PM EST
Moon 12:43 AM EST (3/4) 11:15 AM EST (3/4)
Length of Visible Light 12h 24m
Length of Day
11h 35m
Waning Gibbous, 52% of the Moon is Illuminated
Mar 4
Waning Gibbous
Mar 4
Last Quarter
Mar 11
New
Mar 19
First Quarter
Mar 27
Full

Hourly Weather History & Observations

Time (EST) Temp. Windchill Dew Point Humidity Pressure Visibility Wind Dir Wind Speed Gust Speed Precip Events Conditions
12:53 AM 34.0 °F 29.8 °F 21.9 °F 61% 30.04 in 10.0 mi WNW 4.6 mph - N/A   Clear
1:53 AM 32.0 °F 27.5 °F 21.9 °F 66% 30.05 in 10.0 mi NW 4.6 mph - N/A   Clear
2:53 AM 30.9 °F 26.2 °F 21.9 °F 69% 30.07 in 10.0 mi NW 4.6 mph - N/A   Clear
3:53 AM 30.0 °F 26.5 °F 19.9 °F 66% 30.09 in 10.0 mi NW 3.5 mph - N/A   Clear
4:53 AM 30.0 °F 26.5 °F 21.0 °F 69% 30.12 in 10.0 mi NNW 3.5 mph - N/A   Clear
5:53 AM 28.9 °F 25.2 °F 21.0 °F 72% 30.14 in 10.0 mi NW 3.5 mph - N/A   Clear
6:53 AM 28.9 °F 25.2 °F 19.9 °F 69% 30.16 in 10.0 mi NW 3.5 mph - N/A   Clear
7:53 AM 30.9 °F 27.5 °F 21.9 °F 69% 30.17 in 10.0 mi NNW 3.5 mph - N/A   Clear
8:53 AM 37.0 °F - 19.9 °F 50% 30.19 in 10.0 mi Calm Calm - N/A   Clear
9:53 AM 41.0 °F 35.2 °F 17.1 °F 38% 30.20 in 10.0 mi WNW 9.2 mph 16.1 mph N/A   Clear
10:53 AM 44.1 °F 39.5 °F 16.0 °F 32% 30.18 in 10.0 mi NW 8.1 mph 16.1 mph N/A   Clear
11:53 AM 46.9 °F - 16.0 °F 29% 30.16 in 10.0 mi North 8.1 mph - N/A   Clear
12:53 PM 51.1 °F - 16.0 °F 25% 30.14 in 10.0 mi North 9.2 mph - N/A   Clear
1:53 PM 53.1 °F - 16.0 °F 23% 30.10 in 10.0 mi Variable 5.8 mph - N/A   Clear
2:53 PM 55.9 °F - 15.1 °F 20% 30.09 in 10.0 mi Variable 6.9 mph - N/A   Clear
3:53 PM 57.9 °F - 16.0 °F 19% 30.07 in 10.0 mi NW 6.9 mph - N/A   Clear
4:53 PM 57.9 °F - 15.1 °F 19% 30.08 in 10.0 mi West 5.8 mph - N/A   Clear
5:53 PM 55.0 °F - 18.0 °F 23% 30.09 in 10.0 mi SW 5.8 mph - N/A   Clear
6:53 PM 48.0 °F - 21.9 °F 36% 30.10 in 10.0 mi South 3.5 mph - N/A   Clear
7:53 PM 44.1 °F - 27.0 °F 51% 30.12 in 10.0 mi Calm Calm - N/A   Clear
8:53 PM 42.1 °F - 26.1 °F 53% 30.12 in 10.0 mi Calm Calm - N/A   Clear
9:53 PM 41.0 °F - 28.0 °F 60% 30.12 in 10.0 mi Calm Calm - N/A   Clear
10:53 PM 43.0 °F 41.3 °F 28.0 °F 56% 30.11 in 9.0 mi South 3.5 mph - N/A   Clear
11:53 PM 44.1 °F 42.5 °F 28.9 °F 55% 30.10 in 10.0 mi South 3.5 mph - N/A   Clear